• In Uzbekistan
  • List of Countries
  • For 7 days
  • Water Temperature
  • Satellite Maps
  • Weather Map
  • Weather Widgets
  • user-avatar
    Login

    Hourly Weather Stepovе (Radyans'ke)

    Today, 18 December, Monday

    Time Temperature Precipitation Wind Pressure Humidity
    00:00 +7°C° 0.6 mm 6 mps 746 mmHg 86%
    01:00 +7°C° 0.6 mm 6 mps 745 mmHg 85%
    02:00 +5°C° 0 mm 6 mps 745 mmHg 81%
    03:00 +5°C° 0.6 mm 6 mps 745 mmHg 82%
    04:00 +5°C° 0.6 mm 6 mps 745 mmHg 83%
    05:00 +5°C° 0.6 mm 6 mps 744 mmHg 83%
    06:00 +5°C° 0.7 mm 6 mps 744 mmHg 84%
    07:00 +5°C° 0.7 mm 6 mps 744 mmHg 85%
    08:00 +5°C° 0 mm 7 mps 743 mmHg 86%
    09:00 +5°C° 0.7 mm 7 mps 743 mmHg 86%
    10:00 +5°C° 0.7 mm 8 mps 743 mmHg 85%
    11:00 +5°C° 0.7 mm 8 mps 743 mmHg 85%
    12:00 +6°C° 0.1 mm 8 mps 742 mmHg 85%
    13:00 +6°C° 0.1 mm 7 mps 742 mmHg 85%
    14:00 +8°C° 0.1 mm 7 mps 742 mmHg 85%
    15:00 +6°C° 0 mm 7 mps 743 mmHg 83%
    16:00 +6°C° 0 mm 7 mps 743 mmHg 80%
    17:00 +5°C° 0 mm 7 mps 743 mmHg 78%
    18:00 +4°C° 0 mm 7 mps 744 mmHg 77%
    19:00 +4°C° 0 mm 7 mps 745 mmHg 76%
    20:00 +3°C° 0 mm 7 mps 745 mmHg 75%
    21:00 +2°C° 0 mm 6 mps 746 mmHg 75%
    22:00 +2°C° 0 mm 6 mps 746 mmHg 74%
    23:00 +1°C° 0 mm 6 mps 747 mmHg 74%

    Tomorrow, 19 December, Tuesday

    Time Temperature Precipitation Wind Pressure Humidity
    00:00 +1°C° 0 mm 6 mps 747 mmHg 74%
    01:00 +1°C° 0 mm 6 mps 747 mmHg 74%
    02:00 -1°C° 0 mm 6 mps 748 mmHg 74%
    03:00 0°C° 0 mm 5 mps 748 mmHg 74%
    04:00 -1°C° 0 mm 5 mps 748 mmHg 74%
    05:00 -1°C° 0 mm 5 mps 748 mmHg 74%
    06:00 -1°C° 0 mm 5 mps 749 mmHg 74%
    07:00 -1°C° 0 mm 5 mps 749 mmHg 74%
    08:00 -2°C° 0 mm 5 mps 749 mmHg 74%
    09:00 -1°C° 0 mm 5 mps 750 mmHg 72%
    10:00 -1°C° 0 mm 5 mps 750 mmHg 70%
    11:00 0°C° 0 mm 5 mps 750 mmHg 68%
    12:00 0°C° 0 mm 5 mps 750 mmHg 68%
    13:00 0°C° 0 mm 5 mps 751 mmHg 67%
    14:00 0°C° 0 mm 5 mps 751 mmHg 66%
    15:00 0°C° 0 mm 5 mps 751 mmHg 68%
    16:00 -1°C° 0 mm 4 mps 751 mmHg 69%
    17:00 -1°C° 0 mm 4 mps 751 mmHg 70%
    18:00 -1°C° 0 mm 4 mps 752 mmHg 71%
    19:00 -1°C° 0 mm 4 mps 752 mmHg 71%
    20:00 -1°C° 0 mm 4 mps 752 mmHg 72%
    21:00 -1°C° 0 mm 3 mps 752 mmHg 74%
    22:00 -1°C° 0 mm 3 mps 752 mmHg 76%
    23:00 -1°C° 0 mm 3 mps 752 mmHg 79%

    Day after tomorrow, 20 December, Wednesday

    Time Temperature Precipitation Wind Pressure Humidity
    00:00 -2°C° 0 mm 3 mps 753 mmHg 80%
    01:00 -2°C° 0 mm 3 mps 753 mmHg 81%
    02:00 -2°C° 0 mm 3 mps 753 mmHg 82%
    03:00 -2°C° 0 mm 3 mps 754 mmHg 82%
    04:00 -2°C° 0 mm 3 mps 754 mmHg 83%
    05:00 -4°C° 0 mm 3 mps 754 mmHg 83%
    06:00 -4°C° 0 mm 3 mps 754 mmHg 83%
    07:00 -4°C° 0 mm 3 mps 754 mmHg 83%
    08:00 -3°C° 0 mm 2 mps 755 mmHg 84%
    09:00 -2°C° 0 mm 3 mps 755 mmHg 79%
    10:00 -1°C° 0 mm 3 mps 755 mmHg 75%
    11:00 -1°C° 0 mm 3 mps 756 mmHg 71%
    12:00 -1°C° 0 mm 3 mps 756 mmHg 69%
    13:00 -1°C° 0 mm 3 mps 756 mmHg 68%
    14:00 +1°C° 0 mm 2 mps 756 mmHg 67%
    15:00 -1°C° 0 mm 2 mps 756 mmHg 69%
    16:00 -1°C° 0 mm 2 mps 757 mmHg 70%
    17:00 +1°C° 0 mm 1 mps 757 mmHg 72%
    18:00 0°C° 0 mm 1 mps 757 mmHg 72%
    19:00 0°C° 0 mm 1 mps 757 mmHg 72%
    20:00 0°C° 0 mm 1 mps 758 mmHg 72%
    21:00 0°C° 0 mm 1 mps 758 mmHg 72%
    22:00 0°C° 0 mm 1 mps 758 mmHg 72%
    23:00 0°C° 0 mm 1 mps 758 mmHg 72%

    21 December, Thursday

    Time Temperature Precipitation Wind Pressure Humidity
    00:00 0°C° 0 mm 1 mps 759 mmHg 72%
    01:00 0°C° 0 mm 1 mps 759 mmHg 72%
    02:00 0°C° 0 mm 1 mps 759 mmHg 72%
    03:00 0°C° 0 mm 1 mps 759 mmHg 72%
    04:00 -1°C° 0 mm 1 mps 759 mmHg 72%
    05:00 -1°C° 0 mm 1 mps 759 mmHg 72%
    06:00 -1°C° 0 mm 1 mps 759 mmHg 71%
    07:00 -1°C° 0 mm 1 mps 759 mmHg 71%
    08:00 -1°C° 0 mm 1 mps 759 mmHg 70%
    09:00 0°C° 0 mm 1 mps 759 mmHg 65%
    10:00 -1°C° 0 mm 2 mps 759 mmHg 60%
    11:00 -1°C° 0 mm 2 mps 759 mmHg 55%
    12:00 -1°C° 0 mm 2 mps 759 mmHg 54%
    13:00 -1°C° 0 mm 2 mps 758 mmHg 54%
    14:00 -1°C° 0 mm 2 mps 758 mmHg 54%
    15:00 -1°C° 0 mm 2 mps 758 mmHg 58%
    16:00 -2°C° 0 mm 2 mps 758 mmHg 63%
    17:00 0°C° 0 mm 1 mps 757 mmHg 67%
    18:00 -1°C° 0 mm 1 mps 757 mmHg 69%
    19:00 -1°C° 0 mm 1 mps 757 mmHg 70%
    20:00 -3°C° 0 mm 2 mps 757 mmHg 72%
    21:00 -3°C° 0 mm 2 mps 757 mmHg 73%
    22:00 -3°C° 0 mm 2 mps 756 mmHg 73%
    23:00 -3°C° 0 mm 2 mps 756 mmHg 74%

    22 December, Friday

    Time Temperature Precipitation Wind Pressure Humidity
    00:00 -3°C° 0 mm 2 mps 756 mmHg 75%
    01:00 -3°C° 0 mm 2 mps 755 mmHg 75%
    02:00 -3°C° 0 mm 2 mps 755 mmHg 76%
    03:00 -3°C° 0 mm 2 mps 754 mmHg 76%
    04:00 -3°C° 0 mm 2 mps 754 mmHg 77%
    05:00 -3°C° 0 mm 2 mps 753 mmHg 77%
    06:00 -3°C° 0 mm 2 mps 753 mmHg 77%
    07:00 -3°C° 0 mm 2 mps 753 mmHg 77%
    08:00 -3°C° 0 mm 2 mps 753 mmHg 77%
    09:00 -4°C° 0 mm 3 mps 753 mmHg 72%
    10:00 -2°C° 0 mm 3 mps 752 mmHg 68%
    11:00 -3°C° 0 mm 4 mps 752 mmHg 63%
    12:00 -3°C° 0 mm 4 mps 752 mmHg 64%
    13:00 -2°C° 0 mm 4 mps 751 mmHg 64%
    14:00 -2°C° 0 mm 4 mps 751 mmHg 64%
    15:00 -3°C° 0 mm 4 mps 750 mmHg 67%
    16:00 -3°C° 0 mm 4 mps 750 mmHg 69%
    17:00 -4°C° 0 mm 3 mps 750 mmHg 72%
    18:00 -4°C° 0 mm 4 mps 749 mmHg 72%
    19:00 -3°C° 0 mm 4 mps 749 mmHg 72%
    20:00 -3°C° 0 mm 4 mps 749 mmHg 72%
    21:00 -4°C° 0.1 mm 5 mps 748 mmHg 74%
    22:00 -4°C° 0.1 mm 5 mps 748 mmHg 76%
    23:00 -4°C° 0.1 mm 5 mps 747 mmHg 78%

    23 December, Saturday

    Time Temperature Precipitation Wind Pressure Humidity
    00:00 -4°C° 0 mm 5 mps 747 mmHg 80%
    01:00 -4°C° 0 mm 5 mps 746 mmHg 81%
    02:00 -4°C° 0 mm 5 mps 746 mmHg 82%
    03:00 -4°C° 0.1 mm 5 mps 746 mmHg 83%
    04:00 -4°C° 0.1 mm 5 mps 745 mmHg 83%
    05:00 -4°C° 0.1 mm 5 mps 745 mmHg 84%
    06:00 -4°C° 0 mm 5 mps 745 mmHg 85%
    07:00 -4°C° 0 mm 5 mps 745 mmHg 86%
    08:00 -4°C° 0 mm 5 mps 745 mmHg 86%
    09:00 -4°C° 0.1 mm 5 mps 745 mmHg 85%
    10:00 -2°C° 0.1 mm 5 mps 745 mmHg 83%
    11:00 -2°C° 0.1 mm 5 mps 745 mmHg 81%
    12:00 -2°C° 0.1 mm 5 mps 744 mmHg 81%
    13:00 -2°C° 0.1 mm 5 mps 744 mmHg 80%
    14:00 -1°C° 0.1 mm 4 mps 744 mmHg 79%
    15:00 -2°C° 0 mm 4 mps 744 mmHg 82%
    16:00 -1°C° 0 mm 3 mps 744 mmHg 85%
    17:00 -1°C° 0 mm 2 mps 744 mmHg 88%
    18:00 -2°C° 0 mm 2 mps 745 mmHg 88%
    19:00 -2°C° 0 mm 2 mps 745 mmHg 88%
    20:00 -2°C° 0 mm 3 mps 745 mmHg 88%
    21:00 -2°C° 0 mm 3 mps 745 mmHg 87%
    22:00 -4°C° 0 mm 3 mps 745 mmHg 87%
    23:00 -4°C° 0 mm 3 mps 745 mmHg 87%
    Show more